Location: Brno
(49.2000°N, 16.6330°E)
Time: 22:20:39
(UTC+02:00)

X-37B - Pass Details

Date: 20 June 2021
Orbit: 383 x 392 km, 45.0° (Epoch: 01 July)

Event Time Altitude Azimuth Distance (km) Brightness Sun altitude
Exits shadow 02:28:43 33° 214° (SW) 669 1.2 -14.4°
Maximum altitude 02:29:23 38° 183° (S) 606 1.0 -14.4°
Drops below altitude 10° 02:32:21 10° 113° (ESE) 1,406 3.4 -14.2°
Sets 02:34:29 0° 105° (ESE) 2,261 4.6 -14.1°
